Home   Weather   Port Sudan   Past weeks

Flag for Sudan Past Weather in Port Sudan, Sudan — Yesterday and Last 2 Weeks

Now
90 °F

Sunny.


Feels Like: 93 °F
Forecast: 80 / 96 °F
Wind: 12 mph from Southwest

Location: Jeddah King Abdul Aziz International Airport

Current Time: Apr 30, 2017 at 6:15:55 pm

Latest Report: Apr 30, 2017 at 5:00 pm


Visibility: 10 mi

Pressure: 29.74 "Hg

Humidity: 49%

Dew Point: 68 °F

Location of Port SudanLocation

Past Weather in Port Sudan — Graph

°F

Port Sudan Temperature Yesterday

Maximum temperature yesterday: 97 °F (at 1:00 pm)
Minimum temperature yesterday: 81 °F (at 1:00 am)
Average temperature yesterday: 86 °F

High & Low Weather Summary for the Past Weeks

 TemperatureHumidityPressure
High104 °F (Apr 23, 2:00 pm)84% (Apr 25, 1:00 am)29.92 "Hg (Apr 25, 1:00 am)
Low75 °F (Apr 28, 6:00 am)17% (Apr 22, 11:00 am)29.65 "Hg (Apr 23, 5:00 am)
Average85 °F51%29.78 "Hg
* Reported Apr 15 5:00 pm — Apr 30 5:00 pm, Port Sudan, Weather by CustomWeather, © 2017

Note: Actual official high and low records may vary slightly from our data, if they occured in-between our weather recording intervals... More about our weather records

Advertising

Port Sudan Weather History for the Previous 24 Hours

Scroll right to see more
 ConditionsComfort  
Time TempWeatherWind HumidityBarometerVisibility
5:00 pm
Sun, Apr 30
90 °FSunny.12 mph49%29.74 "Hg10 mi
4:00 pm91 °FSunny.21 mph44%29.74 "Hg10 mi
3:00 pm93 °FSunny.23 mph39%29.74 "Hg10 mi
2:00 pm91 °FSunny.21 mph46%29.77 "Hg10 mi
1:00 pm95 °FSunny.15 mph36%29.80 "Hg10 mi
12:00 pm99 °FClear.18 mph25%29.83 "Hg4 mi
11:00 am97 °FClear.25 mph28%29.83 "Hg4 mi
10:00 am93 °FSunny.25 mph39%29.86 "Hg10 mi
9:00 am90 °FSunny.14 mph49%29.86 "Hg10 mi
8:00 am86 °FSunny.8 mph59%29.86 "Hg10 mi
7:00 am81 °FPassing clouds.5 mph66%29.83 "Hg5 mi
6:00 am81 °FPassing clouds.6 mph70%29.83 "Hg5 mi
5:00 am81 °FPassing clouds.6 mph66%29.80 "HgN/A
4:00 am81 °FPassing clouds.5 mph66%29.80 "HgN/A
3:00 am81 °FPassing clouds.5 mph70%29.80 "HgN/A
2:00 am82 °FPassing clouds.3 mph70%29.80 "HgN/A
1:00 am82 °FPassing clouds.3 mph66%29.80 "HgN/A
12:00 am84 °FPassing clouds.6 mph58%29.83 "HgN/A
11:00 pm
Sat, Apr 29
84 °FPassing clouds.3 mph58%29.80 "HgN/A
10:00 pm84 °FPassing clouds.3 mph55%29.80 "HgN/A
9:00 pm84 °FPassing clouds.5 mph55%29.77 "HgN/A
8:00 pm84 °FPassing clouds.7 mph58%29.77 "HgN/A
7:00 pm86 °FPassing clouds.9 mph52%29.80 "HgN/A
6:00 pm86 °FScattered clouds.12 mph52%29.80 "HgN/A
Weather by CustomWeather, © 2017

See weather overviewHow to use our weather pages